Location: Paderno d�Adda
(45.6667°N, 9.4333°E)
Time: 10:30:16
(UTC+00:00)

ATLAS 3B R/B - Pass Details

Date: 17 January 2021
Orbit: 1006 x 1189 km, 63.8° (Epoch: 07 March)

Event Time Altitude Azimuth Distance (km) Brightness Sun altitude
Rises 17:30:42 0° 320° (NW) 3,869 6.0 -14.3°
Reaches altitude 10° 17:33:20 10° 317° (NW) 2,936 5.4 -14.7°
Maximum altitude 17:40:10 60° 240° (WSW) 1,271 3.4 -15.9°
Drops below altitude 10° 17:47:17 10° 162° (SSE) 3,048 5.0 -17.1°
Sets 17:50:04 0° 159° (SSE) 4,026 5.6 -17.6°
